Location: Berlin
(38.3226°N, 75.2177°W)
Time: 17:35:27
(UTC+00:00)

Meteor 1-16 Rocket - Pass Details

Date: 26 October 2020
Orbit: 790 x 907 km, 81.2° (Epoch: 04 December)

Event Time Altitude Azimuth Distance (km) Brightness Sun altitude
Rises 09:26:24 0° 347° (NNW) 3,298 7.2 -23.1°
Reaches altitude 10° 09:28:48 10° 343° (NNW) 2,361 6.4 -22.7°
Maximum altitude 09:34:00 61° 265° (W) 899 4.0 -21.6°
Drops below altitude 10° 09:39:14 10° 186° (S) 2,363 6.5 -20.6°
Sets 09:41:38 0° 183° (S) 3,300 7.3 -20.1°
